Starlink 11292

operational
NORAD ID: 61203 Int'l Des: 2024-171 Owner: SPXS Country: US Constellation: starlink
LEOCIRCULAR

Starlink 11292について

説明を読み込み中...

リアルタイム位置

3D地球を読み込み中...

次回通過

高度履歴

Altitude vs Time

uPlot chart will show altitude changes over time

軌道要素

1 61203U 24171D 25305.81101351 .00000633 00000-0 10102-4 0 9992
2 61203 53.1596 86.6822 0002182 75.2678 284.8581 15.69697757 64315
Epoch: Nov 1, 2025 • Age: 26 hours

現在のステータス

高度 379.7 km
速度 7.68 km/s
衛星直下点 -53.23°S, 11.16°W
打ち上げ日 Sep 20, 2024
運用期間 1.1 years
タイプ internet

技術仕様

分類 Payload
質量 960.00 kg
乾燥質量 910.00 kg
総質量 960.00 kg
長さ 0.30 m
直径 4.10 m
スパン 29.00 m
形状 Box + pan
製造者 SPXS
バスタイプ Starlink V2MD
フェーズステータス In Orbit
所有者/国 SPXS/US

大規模コンステレーション

Loading constellations...